Location: Les Jeannots
(43.2262°N, 5.5774°E)
Time: 19:15:43
(UTC+00:00)

Resurs 1-4 Rocket - Pass Details

Date: 05 July 2020
Orbit: 800 x 814 km, 98.6° (Epoch: 12 August)

Event Time Altitude Azimuth Distance (km) Brightness Sun altitude
Rises 23:41:08 0° 35° (NE) 3,346 6.1 -24.1°
Reaches altitude 10° 23:45:20 10° 67° (ENE) 2,405 4.8 -24.1°
Maximum altitude 23:47:08 12° 88° (E) 2,285 4.5 -24.1°
Enters shadow 23:48:45 10° 106° (ESE) 2,374 4.4 -24.1°
